Wind_Speed
17 17 17 18 17 17 16 16 14 13 12 11 10 10 9 7 5 4 3 2 2 2 3 3 4 4 4 4 4 5 5 5 5 5 5 5 6 5 5 5 6 6 7
15 16 16 16 17 16 16 16 15 14 12 10 9 9 9 7 7 5 4 3 2 2 3 4 4 4 4 5 5 5 6 6 6 6 7 7 7 6 7 7 7 8 9
14 14 14 15 16 15 15 15 15 14 13 11 10 9 8 7 6 5 5 4 3 3 3 4 4 5 5 5 5 6 6 7 7 8 8 8 8 8 9 9 9 9 10
13 13 14 14 15 15 14 15 14 13 12 11 10 9 8 7 6 5 5 5 4 4 4 4 5 5 5 6 6 6 7 7 8 9 9 9 10 10 10 11 11 11 12
13 13 14 14 14 14 14 14 13 13 12 12 10 9 8 8 7 6 6 5 4 3 4 4 4 5 6 6 6 6 7 8 9 9 9 10 10 11 12 12 12 13 14
12 12 13 14 14 13 13 13 13 13 12 11 11 10 9 8 7 7 6 5 4 4 5 4 5 5 6 6 7 7 8 9 9 10 11 11 12 12 13 13 14 15 15
12 11 13 13 13 13 13 12 12 12 12 12 11 10 9 8 8 7 7 6 5 5 5 5 6 6 7 7 8 8 9 10 11 11 12 13 14 14 14 15 16 16 17
11 11 12 12 13 12 13 13 12 12 12 11 11 10 10 9 8 8 8 8 7 6 6 7 7 8 8 8 9 10 11 12 12 13 13 14 14 15 16 17 17 18 18
12 12 12 12 13 13 12 13 13 12 12 11 11 10 10 9 8 8 9 9 9 8 7 7 7 8 8 9 10 11 12 13 13 14 14 15 15 16 16 17 17 18 18
12 12 12 12 12 12 14 13 13 12 11 11 11 10 10 10 10 9 9 10 9 8 8 8 8 8 9 10 11 12 12 13 14 14 15 16 17 17 18 19 19 19 20
12 12 13 13 13 13 14 13 12 12 12 12 12 12 11 11 11 11 11 11 10 10 9 9 9 10 11 11 12 13 13 14 15 15 16 18 18 19 20 20 20 21 21
12 12 13 13 14 14 14 13 12 13 13 13 13 12 12 12 12 12 12 12 12 11 11 10 10 11 12 13 13 14 15 15 16 17 17 18 19 20 21 22 22 23 23
11 11 13 15 15 15 14 13 13 13 13 13 13 13 13 13 13 13 13 13 13 12 12 12 12 12 13 14 14 15 15 16 17 17 19 20 20 21 23 23 24 24 25
11 12 14 15 15 15 14 13 13 13 14 14 15 15 14 14 14 14 14 14 13 13 13 13 13 14 14 15 16 16 17 17 18 19 20 20 21 22 23 24 25 26 27
12 13 14 15 15 15 14 14 14 14 15 15 15 16 15 14 15 15 15 15 14 14 14 14 15 15 15 15 15 16 17 18 18 19 20 21 22 23 23 24 26 27 28
14 15 15 16 16 16 16 16 16 16 16 16 16 16 16 15 15 16 15 15 16 15 15 15 15 15 15 15 16 17 18 19 20 21 21 22 23 23 24 24 24 25 25
15 15 17 18 18 17 17 17 18 18 18 18 18 18 17 16 16 16 16 16 16 16 16 16 16 16 16 16 17 18 19 20 21 21 22 23 23 23 24 24 24 25 25
17 18 19 19 19 19 20 19 19 19 20 19 18 18 18 18 17 17 17 17 17 17 17 17 17 17 17 18 18 18 20 21 22 23 23 24 24 24 25 24 25 26 26
19 20 21 20 20 21 21 21 20 20 20 20 19 19 19 19 19 19 19 19 18 18 18 18 18 18 19 19 19 20 20 21 22 23 24 24 25 25 26 26 26 27 27
21 21 22 22 22 23 22 22 22 22 22 21 20 20 21 21 20 20 20 19 19 20 20 20 19 20 20 20 20 21 22 23 24 25 25 26 26 26 26 26 27 27 28
23 24 24 25 25 25 24 24 24 24 24 22 20 21 22 22 21 22 22 22 22 22 22 21 21 21 21 22 22 23 23 24 25 26 26 26 26 26 26 26 27 28 28
26 27 27 27 26 26 26 25 25 25 24 24 23 23 23 23 23 23 23 24 24 24 23 22 22 21 21 22 23 24 24 26 26 26 27 27 26 27 27 27 28 29 29
28 29 28 28 28 27 27 27 26 25 25 24 24 24 24 24 25 24 24 24 25 25 24 23 23 23 23 24 25 25 26 27 27 27 27 27 28 28 28 28 28 28 29
30 31 30 29 30 29 29 29 27 26 26 25 26 26 26 26 26 25 25 25 25 25 24 24 24 24 25 25 26 26 27 27 28 28 28 28 28 28 28 28 28 29 29
32 31 30 31 30 29 28 28 28 28 27 27 27 27 27 28 26 25 26 26 26 26 26 25 25 25 26 26 26 27 27 28 28 28 28 28 28 28 28 28 29 29 30
33 32 31 31 31 30 30 29 29 29 28 28 28 28 28 28 27 26 26 27 27 27 27 26 26 26 27 26 27 27 27 28 28 28 28 28 28 28 28 29 29 30 30
Wind_Direction
19 19 19 19 20 21 23 21 18 14 17 24 30 30 31 31 30 24 12 333 290 265 243 242 247 247 252 254 251 248 252 253 259 265 273 278 279 279 277 279 280 280 282
12 14 14 16 18 19 20 19 17 18 17 17 24 22 22 28 27 21 9 360 352 302 259 251 249 249 250 247 247 251 255 258 263 265 268 271 276 278 277 280 279 279 282
6 8 11 13 15 16 16 15 17 18 18 16 20 19 17 18 17 16 7 352 330 322 290 263 258 255 251 246 248 255 261 263 265 267 268 269 273 277 279 279 280 283 284
0 5 9 11 12 11 12 13 14 15 15 15 15 14 11 10 11 9 1 352 330 307 296 274 266 263 258 256 258 260 263 264 266 268 270 272 274 276 280 282 283 283 284
356 359 2 6 8 8 8 10 11 13 12 12 12 12 6 3 4 360 358 356 348 318 296 281 267 265 262 263 262 265 268 267 269 273 274 278 280 279 279 281 284 284 284
352 356 357 1 5 6 5 5 7 8 9 11 10 8 3 1 357 351 350 347 334 318 299 286 278 269 264 264 266 272 274 274 275 276 278 280 280 281 283 284 285 287 286
347 350 350 358 360 359 358 359 4 4 5 7 6 6 4 360 355 348 343 335 322 316 303 287 283 277 273 270 272 273 276 276 275 277 279 278 277 277 279 281 283 285 284
352 353 352 355 355 353 354 354 356 1 2 3 3 3 360 354 350 345 340 334 327 319 301 296 285 281 280 279 277 278 278 276 275 276 280 281 281 277 278 281 283 283 282
353 354 357 356 353 352 351 353 356 355 356 358 360 359 355 352 347 343 341 339 332 322 310 302 293 290 287 285 285 287 285 280 276 276 280 282 284 285 285 284 284 283 283
349 350 351 350 350 354 350 347 350 354 355 354 354 353 350 350 349 346 343 341 338 329 315 303 295 290 287 285 286 288 286 286 282 280 281 283 285 285 286 287 286 285 284
340 341 347 347 347 351 352 349 350 353 354 354 353 352 348 347 346 343 339 337 333 329 319 310 301 296 293 290 287 291 292 289 287 285 285 284 285 287 286 286 287 286 286
328 336 342 345 346 347 347 349 347 349 348 348 348 347 344 341 340 337 333 331 329 326 321 312 305 302 298 295 292 292 291 288 287 286 285 285 286 289 289 288 288 287 286
324 333 337 339 341 342 343 346 346 345 343 340 339 338 336 334 333 332 329 327 325 322 317 313 308 304 301 298 295 292 291 290 289 288 288 288 289 291 289 289 289 287 286
320 326 332 337 337 339 338 337 338 338 337 335 334 335 332 330 329 329 327 327 322 318 314 311 310 306 303 301 299 295 293 291 290 290 292 292 291 292 292 291 290 289 289
314 322 328 332 334 334 332 329 328 328 328 328 329 330 330 327 327 328 327 325 321 316 314 311 309 307 305 304 303 302 300 295 295 295 295 294 294 294 294 292 292 292 290
307 315 321 326 328 328 327 325 322 320 321 321 322 323 325 325 324 325 329 329 324 319 316 317 314 313 310 307 306 305 304 303 300 299 299 299 299 299 295 293 294 296 295
301 307 313 317 320 319 318 317 317 318 318 319 319 318 319 319 320 321 324 324 323 320 317 316 317 317 316 313 312 308 305 305 303 302 301 302 304 303 301 299 299 299 298
295 300 305 309 311 312 313 312 313 313 315 314 314 313 314 313 313 315 319 319 318 318 317 314 314 314 314 314 313 310 308 305 303 303 304 304 304 303 303 302 301 300 299
290 294 299 302 305 306 308 309 310 308 309 310 309 311 311 311 311 310 312 315 316 316 316 313 312 312 312 311 311 310 309 309 308 308 307 305 304 302 301 300 301 300 299
286 290 294 296 298 300 302 305 305 306 306 304 304 305 307 309 310 311 311 312 312 312 313 312 311 310 309 310 310 309 310 310 310 309 307 305 304 303 302 302 302 302 302
283 288 291 293 295 296 298 300 301 300 301 302 301 302 303 304 306 308 308 309 310 309 309 310 309 309 309 308 308 308 309 310 311 310 308 307 305 306 304 303 302 303 303
282 287 288 289 293 295 296 297 299 300 300 301 302 303 305 304 303 305 305 305 307 307 306 306 308 309 308 308 308 309 309 310 310 310 309 307 306 307 306 305 304 305 306
281 284 286 288 291 292 293 295 297 298 299 301 300 300 302 305 305 304 304 305 306 306 304 304 305 307 307 307 307 308 309 310 310 310 308 308 307 306 305 305 306 306 307
279 281 283 285 288 289 291 293 294 295 297 298 298 300 301 303 302 303 302 302 302 304 304 303 304 304 305 306 307 308 309 309 308 309 308 307 306 306 305 306 306 307 308
276 279 280 282 285 288 290 292 292 292 294 296 297 299 302 303 301 300 299 299 299 299 300 301 301 302 304 306 307 307 308 309 310 309 308 307 306 306 306 307 306 308 309
272 275 278 280 281 285 286 288 289 290 293 295 297 299 301 301 300 298 297 297 298 298 298 299 299 301 303 306 307 307 308 310 310 310 309 308 307 307 307 308 309 309 310
Height
5925 5923 5920 5918 5915 5913 5910 5908 5906 5904 5902 5901 5899 5898 5897 5896 5896 5895 5894 5894 5894 5894 5894 5894 5895 5895 5896 5896 5896 5896 5897 5897 5897 5897 5897 5897 5897 5897 5897 5897 5897 5897 5896
5926 5924 5921 5919 5916 5914 5912 5909 5907 5904 5903 5901 5899 5899 5898 5897 5896 5895 5895 5894 5894 5893 5893 5894 5894 5894 5895 5895 5895 5895 5895 5895 5896 5896 5896 5896 5897 5896 5896 5896 5895 5895 5895
5927 5924 5922 5919 5917 5914 5912 5910 5908 5906 5904 5902 5900 5899 5898 5897 5896 5895 5894 5894 5893 5893 5893 5893 5893 5893 5893 5894 5894 5894 5894 5894 5894 5894 5895 5895 5895 5894 5894 5894 5893 5893 5893
5926 5924 5922 5920 5917 5915 5913 5910 5908 5906 5904 5903 5901 5900 5898 5897 5896 5895 5894 5893 5892 5892 5892 5892 5892 5892 5892 5892 5892 5892 5892 5892 5892 5892 5892 5893 5892 5892 5892 5892 5891 5891 5890
5927 5924 5922 5919 5917 5915 5913 5911 5909 5907 5905 5903 5901 5900 5898 5897 5896 5895 5893 5893 5892 5891 5891 5891 5891 5891 5891 5891 5891 5891 5891 5891 5891 5890 5890 5890 5890 5890 5889 5889 5889 5888 5887
5927 5924 5922 5920 5917 5915 5913 5911 5909 5907 5905 5903 5901 5899 5898 5897 5895 5894 5893 5892 5891 5891 5890 5889 5889 5889 5889 5889 5889 5889 5889 5889 5889 5888 5888 5888 5888 5887 5887 5886 5886 5885 5884
5926 5924 5922 5920 5918 5916 5914 5911 5909 5907 5905 5903 5901 5899 5898 5897 5895 5894 5893 5891 5890 5890 5889 5888 5888 5888 5887 5887 5887 5887 5887 5886 5886 5886 5886 5885 5884 5884 5884 5883 5882 5881 5881
5926 5924 5922 5920 5918 5916 5914 5911 5909 5907 5905 5903 5901 5899 5898 5896 5895 5893 5892 5890 5889 5888 5887 5887 5886 5886 5886 5885 5885 5885 5884 5884 5884 5883 5882 5882 5881 5880 5880 5879 5878 5878 5877
5926 5924 5922 5920 5918 5916 5914 5911 5909 5907 5905 5903 5901 5899 5897 5896 5894 5893 5891 5890 5888 5887 5886 5885 5885 5884 5884 5884 5883 5882 5882 5881 5880 5880 5879 5878 5877 5877 5876 5875 5874 5874 5872
5926 5924 5922 5920 5918 5915 5913 5911 5909 5907 5905 5902 5900 5899 5897 5896 5894 5893 5891 5889 5887 5886 5885 5884 5883 5882 5882 5881 5881 5880 5879 5878 5877 5876 5876 5875 5874 5873 5872 5871 5869 5868 5868
5925 5923 5921 5919 5917 5914 5912 5910 5908 5906 5905 5903 5901 5899 5897 5895 5894 5892 5890 5888 5886 5885 5883 5882 5881 5880 5879 5879 5878 5877 5876 5875 5874 5873 5872 5871 5870 5869 5867 5866 5865 5863 5862
5923 5922 5920 5918 5916 5913 5912 5910 5908 5906 5904 5903 5901 5899 5897 5895 5893 5891 5889 5887 5885 5883 5882 5880 5879 5878 5877 5876 5875 5874 5873 5872 5871 5869 5868 5867 5866 5864 5863 5861 5859 5858 5856
5922 5920 5919 5917 5915 5913 5911 5909 5908 5906 5904 5902 5900 5898 5896 5894 5892 5890 5888 5886 5884 5882 5880 5879 5877 5876 5875 5873 5872 5871 5870 5868 5867 5865 5864 5862 5861 5859 5857 5856 5854 5852 5850
5920 5919 5917 5916 5914 5912 5910 5908 5907 5905 5903 5901 5898 5896 5894 5892 5890 5888 5886 5883 5881 5880 5878 5876 5875 5873 5872 5870 5869 5867 5866 5864 5863 5861 5859 5858 5856 5854 5852 5850 5848 5846 5844
5918 5917 5915 5914 5912 5910 5909 5907 5905 5903 5901 5899 5897 5894 5892 5890 5888 5886 5884 5881 5879 5877 5875 5874 5872 5870 5868 5867 5865 5863 5862 5860 5858 5856 5855 5853 5850 5848 5846 5844 5841 5839 5837
5915 5914 5913 5912 5910 5908 5906 5905 5903 5901 5899 5896 5894 5892 5890 5888 5886 5884 5882 5879 5877 5875 5873 5871 5869 5867 5865 5863 5861 5860 5858 5856 5854 5852 5850 5847 5845 5842 5840 5837 5835 5832 5830
5912 5911 5910 5908 5907 5905 5904 5902 5900 5898 5895 5893 5891 5889 5887 5885 5884 5881 5879 5877 5875 5872 5871 5868 5866 5864 5861 5859 5857 5855 5853 5851 5849 5847 5844 5842 5839 5837 5834 5831 5828 5826 5823
5908 5907 5906 5905 5903 5901 5899 5897 5896 5894 5892 5890 5888 5886 5884 5882 5880 5878 5876 5874 5871 5869 5867 5865 5863 5860 5858 5856 5853 5851 5849 5846 5844 5841 5838 5836 5834 5831 5828 5825 5823 5820 5817
5903 5902 5901 5900 5899 5897 5896 5894 5892 5890 5888 5886 5884 5882 5880 5878 5876 5874 5872 5870 5868 5866 5863 5861 5859 5856 5854 5852 5849 5847 5844 5841 5838 5836 5833 5831 5828 5825 5822 5819 5817 5814 5811
5898 5898 5896 5895 5894 5893 5891 5890 5888 5886 5884 5881 5879 5878 5876 5874 5872 5870 5868 5866 5864 5861 5859 5856 5854 5852 5849 5847 5845 5842 5839 5837 5834 5831 5827 5824 5821 5818 5815 5813 5810 5807 5804
5893 5892 5891 5890 5889 5888 5887 5885 5883 5882 5879 5876 5873 5872 5871 5869 5868 5866 5864 5861 5859 5857 5854 5851 5849 5847 5844 5842 5839 5837 5834 5831 5828 5825 5821 5818 5815 5812 5809 5806 5803 5800 5797
5887 5887 5885 5884 5883 5882 5881 5879 5878 5876 5874 5872 5870 5868 5866 5864 5862 5860 5858 5856 5854 5851 5849 5846 5844 5841 5839 5837 5834 5831 5828 5825 5822 5818 5815 5812 5809 5806 5803 5799 5796 5793 5790
5881 5880 5879 5878 5877 5876 5875 5873 5872 5870 5868 5867 5865 5863 5861 5859 5857 5854 5852 5850 5848 5845 5843 5841 5839 5836 5833 5831 5828 5825 5822 5819 5816 5812 5809 5806 5802 5799 5796 5792 5789 5786 5783
5873 5873 5872 5872 5871 5869 5868 5867 5865 5864 5862 5861 5859 5857 5855 5853 5850 5848 5846 5844 5842 5840 5838 5835 5833 5830 5827 5825 5822 5819 5816 5813 5809 5806 5802 5799 5796 5793 5789 5786 5782 5779 5776
5865 5865 5865 5864 5863 5863 5861 5860 5859 5857 5856 5854 5853 5851 5848 5846 5843 5841 5840 5838 5836 5834 5832 5829 5826 5824 5821 5818 5815 5812 5809 5806 5803 5799 5796 5792 5789 5786 5782 5779 5775 5772 5768
5856 5856 5857 5857 5856 5855 5854 5853 5852 5850 5849 5848 5846 5844 5842 5839 5837 5835 5833 5831 5829 5827 5824 5822 5820 5817 5814 5811 5808 5805 5802 5799 5796 5792 5789 5785 5782 5778 5775 5772 5768 5765 5761